Location: Campagnola
(45.2833°N, 11.9833°E)
Time: 07:50:43
(UTC+00:00)

Daily predictions for brighter satellites

Satellite Brightness Start Highest point End
(mag) Time Altitude Azimuth Time Altitude Azimuth Time Altitude Azimuth
Cosmos 1634 Rocket 4.0 16:26:13 10° N 16:32:29 74° E 16:38:45 10° SSE
Cosmos 1025 Rocket 4.4 16:29:27 10° SSW 16:33:33 41° WNW 16:37:42 10° N
CZ-2C R/B 4.0 16:29:53 10° ESE 16:34:23 29° ENE 16:39:06 10° N
H-2A R/B 2.5 16:32:13 10° SSE 16:36:12 85° WSW 16:40:24 10° NNW
Okean-O 4.1 16:33:41 10° E 16:36:25 16° ENE 16:39:10 10° NNE
H-2A R/B 3.3 16:34:13 10° E 16:37:30 18° ENE 16:40:51 10° NNE
Okean O Rocket 1.6 16:34:38 10° SSE 16:39:03 70° ENE 16:43:29 10° N
CZ-4B R/B 2.5 16:37:17 10° NE 16:40:09 25° E 16:42:57 10° SSE
YAOGAN 6 4.2 16:37:39 10° SSW 16:40:59 39° W 16:44:23 10° NNW
SMAP 3.2 16:36:24 10° SSE 16:41:03 85° WSW 16:45:45 10° NNW
SeaSat 1 4.4 16:37:55 10° N 16:41:52 24° NW 16:45:47 10° W
Cosmos 1626 2.4 16:38:13 10° SSW 16:41:54 73° W 16:45:36 10° N
Cosmos 773 Rocket 4.0 16:37:10 10° NNW 16:42:17 59° ENE 16:47:20 10° SE
CZ-4B R/B 3.3 16:37:32 10° SSE 16:43:04 88° ENE 16:48:44 10° NNW
SL-24 R/B 4.2 16:39:21 10° SSE 16:43:39 87° E 16:48:17 10° NNW
Aureole 2 Rocket 3.9 16:44:48 10° SE 16:46:34 15° E 16:48:02 11° ENE
AQUARIUS 4.3 16:43:30 10° SSE 16:48:00 82° W 16:52:32 10° NNW
Cosmos 1603 4.1 16:45:43 10° NNW 16:51:25 72° WSW 16:57:07 10° SSE
Meteor 2-10 Rocket 4.0 16:46:50 10° N 16:52:04 40° ENE 16:57:02 10° SE
CZ-2D R/B 3.8 16:52:17 10° SE 16:55:51 37° ENE 16:59:25 10° N
Cosmos 1606 Rocket 3.5 16:52:55 10° N 16:57:19 76° E 17:01:43 10° SSE
USA 234 4.2 16:52:59 10° ENE 16:58:31 32° N 17:04:10 10° NW
YAOGAN 1 3.6 16:55:08 10° ESE 16:58:35 24° ENE 17:02:03 10° NNE
H-2A R/B 2.4 16:54:16 10° N 16:58:44 74° WNW 17:03:05 10° SSW
Cosmos 1892 Rocket 3.8 16:54:44 10° SSE 16:58:54 47° E 17:03:04 10° NNE
TELKOM 3 4.0 16:57:30 10° SSW 16:59:37 31° SE 17:01:04 17° E
FengYun 1-2 T 4.4 16:55:05 10° SSE 17:00:38 81° WSW 17:06:17 10° NNW
ATLAS 5 CENTAUR R/B 2.2 16:57:13 10° WSW 17:01:08 50° NW 17:05:35 10° NNE
SL-14 R/B 4.0 17:00:38 10° SSW 17:04:24 54° W 17:08:16 10° N
Helios 1A Rocket 4.1 17:01:19 10° ESE 17:04:28 21° ENE 17:07:38 10° NNE
RESURS DK-1 4.1 17:02:47 10° WSW 17:06:27 30° NW 17:10:09 10° N
MOS 1 Rocket 3.5 17:04:06 10° NNE 17:08:10 39° E 17:12:10 10° SSE
Cosmos 2228 3.3 17:05:02 10° NNW 17:09:17 72° W 17:13:32 10° S
ATLAS 3B R/B 4.0 17:02:44 10° NW 17:09:21 46° WSW 17:16:11 10° S
BREEZE-M DEB (TANK) 4.4 17:08:41 10° W 17:10:57 21° SSW 17:13:40 10° SSE
Meteor 2-5 Rocket 4.3 17:07:49 10° SSW 17:13:19 61° WNW 17:18:49 10° N
SKYMED 2 3.6 17:09:49 10° NNE 17:14:08 62° E 17:18:25 10° S
Cosmos 2180 Rocket 4.5 17:08:19 10° N 17:14:44 76° E 17:21:08 10° SSE
CZ-4C R/B 3.8 17:10:37 10° W 17:15:07 27° NNW 17:20:24 10° NNE
Cosmos 1538 Rocket 3.9 17:10:50 10° NNW 17:16:00 66° ENE 17:21:08 10° SSE
Aureole 3 3.8 17:13:05 10° NNE 17:16:07 26° ENE 17:18:48 10° SE
SJ 16-02 2.0 17:12:19 10° SSE 17:16:15 33° E 17:18:57 17° NE
Nadezhda 4 Rocket 4.2 17:11:34 10° SSE 17:17:31 49° E 17:23:28 10° NNE
CZ-3B R/B 2.6 17:15:13 10° NW 17:17:32 31° NE 17:20:09 19° E
Cosmos 1777 Rocket 4.0 17:14:16 10° SSW 17:19:31 87° ESE 17:24:51 10° NNE
Cosmos 2263 Rocket 3.3 17:16:18 10° SW 17:21:42 44° WNW 17:27:08 10° NNE
Cosmos 1455 2.5 17:23:10 10° N 17:26:47 40° ENE 17:30:24 10° SSE
Cosmos 2058 Rocket 3.0 17:24:15 10° N 17:28:46 80° E 17:33:17 10° SSE
Cosmos 1703 4.2 17:28:50 10° SSE 17:31:37 26° ESE 17:31:37 26° ESE
X-37B 1.7 17:29:38 10° SW 17:32:31 31° SSE 17:33:14 28° SE
Meteor 2-13 Rocket 4.4 17:29:57 10° S 17:35:58 65° E 17:42:03 10° NNE
ARGOS 3.5 17:31:51 10° SE 17:36:50 41° ENE 17:41:51 10° N
Cosmos 44 4.3 17:36:15 10° SSE 17:40:09 26° ESE 17:40:17 26° ESE
Okean 1-7 Rocket 3.6 17:35:52 10° S 17:40:24 86° E 17:45:01 10° N
CREW DRAGON DEMO-1 DEB 3.7 17:39:27 10° NW 17:41:52 33° N 17:41:52 33° N
Lacrosse 5 1.8 17:37:21 10° NW 17:42:23 64° NE 17:45:00 28° ESE
NOSS 3-1 (C) 4.4 17:35:54 10° NNW 17:42:46 43° NE 17:47:11 25° E
Cosmos 1939 Rocket 4.4 17:40:12 10° SSW 17:44:05 40° W 17:47:58 10° NNW
ISS -3.7 17:41:16 10° SW 17:44:35 58° SE 17:45:00 52° ESE
ERS-2 2.0 17:42:02 17° NNE 17:44:45 85° E 17:48:24 10° SSW
CZ-2C R/B 3.4 17:45:50 30° E 17:46:34 31° E 17:51:29 10° SSE
CSL-04 Debris 4.3 17:41:42 10° SE 17:46:53 51° ENE 17:52:06 10° N
PSLV R/B 3.9 17:43:31 14° NNE 17:47:10 73° ESE 17:51:22 10° S
EXPRESS MD2 4.1 17:40:12 10° WNW 17:48:05 76° SSW 17:50:21 27° SE
COSMOS 2455 3.0 17:43:03 10° SW 17:49:03 74° WNW 17:54:02 16° NNE
Cosmos 1626 Rocket 3.5 17:47:21 10° S 17:51:38 59° E 17:54:01 25° NNE
Cosmos 1844 3.6 17:48:17 10° SSW 17:53:51 66° ESE 17:57:10 25° NE
Cosmos 2026 Rocket 4.2 17:48:55 10° SSE 17:54:38 44° E 18:00:27 10° NNE
IRS-1C Rocket 4.5 17:49:34 10° S 17:54:47 66° WSW 18:00:02 10° NNW
Cosmos 990 Rocket 4.3 17:50:44 10° S 17:55:36 42° ESE 17:56:18 40° E
Cosmos 1833 Rocket 4.0 17:51:19 10° N 17:54:41 22° NNE 17:54:41 22° NNE
CZ-4 R/B 1.5 17:52:11 10° S 17:56:19 76° WSW 18:00:22 10° NNW
Cosmos 2082 Rocket 4.1 17:54:03 10° N 17:55:55 14° NNE 17:55:55 14° NNE
USA 229 DEB 4.4 17:52:56 10° NNW 17:59:40 40° NE 18:01:49 33° ENE
USA 229 4.4 17:53:02 10° NNW 17:59:45 39° NE 18:01:52 33° ENE
COSMO-SKYMED 1 3.8 17:58:05 10° N 18:02:11 41° WNW 18:06:15 10° SW
DMSP B5D1-3 4.4 18:01:31 17° NNE 18:05:25 72° ESE 18:10:30 10° S
USA 267 3.8 18:04:13 34° E 18:05:45 39° SE 18:11:47 10° SSW
CZ-4B R/B 4.0 18:09:41 10° NNW 18:12:12 20° WNW 18:14:41 10° WSW
Okean-O 3.1 18:08:04 10° S 18:12:27 59° W 18:16:50 10° NNW
CZ-2C R/B 4.3 18:09:02 10° S 18:14:01 44° W 18:19:19 10° NNW
NOSS 3-1 (A) 4.4 18:08:25 10° NNW 18:15:19 43° NE 18:16:57 39° ENE
Cosmos 1844 Rocket 2.9 18:10:16 10° SSW 18:15:55 70° WNW 18:19:24 24° NNE
H-2A R/B 2.3 18:11:27 10° S 18:16:22 67° WSW 18:21:27 10° NNW
Cosmos 923 Rocket 4.0 18:12:21 10° NNW 18:17:43 83° WSW 18:23:01 10° SSE
Meteor 1-21 Rocket 4.3 18:12:44 10° SSW 18:18:15 74° WNW 18:23:49 10° N
Cosmos 1689 Rocket 4.0 18:20:00 28° WSW 18:20:00 28° WSW 18:21:47 10° SW
Aureole 2 Rocket 4.1 18:16:40 10° WSW 18:19:17 27° WNW 18:19:28 26° NW
Cosmos 2195 Rocket 4.4 18:13:52 10° S 18:20:11 81° E 18:26:34 10° N
Cosmos 158 Rocket 4.3 18:17:46 10° NNW 18:23:05 69° WSW 18:28:26 10° S
Meteor 2-8 Rocket 4.3 18:17:18 10° N 18:23:24 81° E 18:29:31 10° S
Meteor 2-15 4.4 18:18:01 10° N 18:24:05 58° ENE 18:24:42 55° ESE
Cosmos 1898 Rocket 3.5 18:18:53 10° S 18:23:42 62° SE 18:23:42 62° SE
Cosmos 2278 Rocket 4.4 18:20:13 10° SSE 18:20:26 11° SSE 18:20:26 11° SSE
Cosmos 1680 Rocket 3.3 18:19:50 10° NNW 18:25:07 87° ENE 18:26:36 49° SSE
Cosmos 1627 Rocket 4.3 18:23:54 10° S 18:30:03 86° E 18:36:21 10° N
Cosmos 2098 Rocket 4.2 18:24:21 10° S 18:31:19 71° E 18:38:45 10° NNE
Cosmos 1602 Rocket 3.7 18:27:24 10° SSW 18:31:35 69° W 18:31:35 69° W
Cosmos 1818 4.1 18:27:50 10° SW 18:33:10 56° NW 18:34:52 39° N
YAOGAN 1 4.1 18:30:31 10° SSW 18:34:30 36° W 18:38:30 10° NNW
Cosmos 1428 Rocket 4.4 18:28:47 10° S 18:35:03 87° E 18:41:25 10° N
CSL-04 Rocket 4.0 18:32:50 10° S 18:38:11 66° WSW 18:43:39 10° NNW
Helios 1A Rocket 4.4 18:35:32 10° SSW 18:39:23 37° W 18:43:16 10° NNW
USA 234 3.5 18:40:20 49° NE 18:40:41 49° NNE 18:46:56 10° NW
Cosmos 1092 Rocket 4.4 18:39:09 10° SSW 18:45:16 61° W 18:51:23 10° N
ATLAS 5 CENTAUR R/B 4.1 18:44:44 10° NW 18:47:00 14° NNW 18:47:38 13° NNW
Iridium 4 Rocket 4.1 18:41:31 10° N 18:47:09 61° W 18:52:20 10° SSW
SJ 16-02 3.3 18:51:08 10° WSW 18:54:51 26° WNW 18:55:59 23° NW
Cosmos 2344 4.2 18:45:54 10° NW 18:55:14 76° NE 18:59:35 46° SE
Lacrosse 5 3.8 19:20:50 10° WNW 19:24:15 25° WSW 19:24:15 25° WSW
CZ-2C R/B 3.9 19:27:19 40° WNW 19:27:19 40° WNW 19:32:06 10° SW
NOSS 3-1 (C) 4.3 19:26:36 10° NW 19:34:08 63° WSW 19:34:39 62° SW
USA 267 4.3 19:51:35 40° WSW 19:51:35 40° WSW 19:55:32 10° WSW
